Starlink 33730

operational
NORAD ID: 63439 Int'l Des: 2025-069 Owner: SPXS Country: US Constellation: starlink
LEOCIRCULAR

Über Starlink 33730

Beschreibung wird geladen...

Live-Position

3D-Globus wird geladen...

Nächste Überflüge

Höhenverlauf

Altitude vs Time

uPlot chart will show altitude changes over time

Zweizeiliger Elementsatz

1 63439U 25069G 25259.25002315 -.01898643 00000-0 -67819-1 0 9991
2 63439 53.1592 232.4758 0002237 90.7434 169.8194 15.31977042 5848
Epoch: 16. Sept. 2025 • Age: 5 hours

Aktueller Status

Höhe 476.1 km
Geschwindigkeit 7.63 km/s
Subsatellitenpunkt 45.40°N, 113.78°E
Startdatum 4. Apr. 2025
Alter 0.4 years
Typ internet

Technische Details

Klassifizierung Payload
Masse 575.00 kg
Trockenmasse 530.00 kg
Gesamtmasse 575.00 kg
Länge 0.30 m
Durchmesser 4.10 m
Spannweite 29.00 m
Form Box + pan
Hersteller SPXS
Bus-Typ Starlink V2MO
Phasenstatus In Orbit
Besitzer/Staat SPXS/US

Große Konstellationen

Loading constellations...